This is the latest recevied weather packets stored in our database for station/object ZL1CTS-13. If no packets are shown the sender has not sent any weather packets the latest 10 day(s).
| Time | Temp. | Humidity | Pressure | Rain* | Wind** | Luminosity | Snow |
|---|---|---|---|---|---|---|---|
| 1777421404 | 20° C | 79% | 1019.2 hPa | 0 mm | - | - | - |
| 1777420804 | 21.11° C | 78% | 1019.1 hPa | 0 mm | - | - | - |
| 1777420203 | 20.56° C | 80% | 1019.1 hPa | 0 mm | - | - | - |
| 1777419604 | 20° C | 84% | 1019.2 hPa | 0 mm | - | - | - |
| 1777419004 | 18.33° C | 89% | 1019.1 hPa | 0 mm | - | - | - |
| 1777418404 | 18.89° C | 86% | 1019.2 hPa | 0 mm | - | - | - |
| 1777417804 | 19.44° C | 82% | 1019.2 hPa | 0 mm | - | - | - |
| 1777417203 | 20° C | 80% | 1019.3 hPa | 0 mm | - | - | - |
| 1777416604 | 20° C | 81% | 1019.3 hPa | 0 mm | - | - | - |
| 1777416004 | 20° C | 84% | 1019.3 hPa | 0 mm | - | - | - |
| 1777415404 | 18.89° C | 85% | 1019.2 hPa | 0 mm | - | - | - |
| 1777414804 | 19.44° C | 82% | 1019.1 hPa | 0 mm | - | - | - |
| 1777414203 | 21.11° C | 85% | 1019.1 hPa | 0 mm | - | - | - |
| 1777413604 | 18.89° C | 92% | 1019.1 hPa | 0 mm | - | - | - |
| 1777413004 | 17.78° C | 93% | 1019.1 hPa | 0 mm | - | - | - |
| 1777412404 | 18.33° C | 97% | 1019.1 hPa | 0 mm | - | - | - |
| 1777411804 | 17.78° C | 97% | 1019.1 hPa | 0 mm | - | - | - |
| 1777411204 | 16.11° C | 98% | 1019.1 hPa | 0 mm | - | - | - |
| 1777410603 | 16.11° C | 98% | 1019.1 hPa | 0 mm | - | - | - |
| 1777410004 | 16.11° C | 99% | 1019 hPa | 0 mm | - | - | - |
| 1777409404 | 15.56° C | 99% | 1018.9 hPa | 0 mm | - | - | - |
| 1777408204 | 14.44° C | 99% | 1018.9 hPa | 0 mm | - | - | - |
| 1777407604 | 14.44° C | 99% | 1018.9 hPa | 0 mm | - | - | - |
| 1777407004 | 13.89° C | 99% | 1018.9 hPa | 0 mm | - | - | - |
| 1777406404 | 13.89° C | 99% | 1018.8 hPa | 0 mm | - | - | - |
* Rain latest hour (hover to see other rain measurements)
** Current wind speed in m/s (hover to see current wind gust speed)